Location: Cella
(44.7333°N, 10.5667°E)
Time: 01:38:33
(UTC+00:00)

OBJECT-B - Pass Details

Date: 03 March 2021
Orbit: 414 x 427 km, 97.0° (Epoch: 11 April)

Event Time Altitude Azimuth Distance (km) Brightness Sun altitude
Exits shadow 19:38:15 20° 322° (NW) 1,039 3.3 -27.1°
Drops below altitude 10° 19:39:30 10° 333° (NNW) 1,513 4.1 -27.3°
Sets 19:41:35 0° 341° (NNW) 2,381 5.1 -27.7°
